Time,TemperatureF,DewpointF,PressureIn,WindDirection,WindDirectionDegrees,WindSpeedMPH,WindSpeedGustMPH,Humidity,HourlyPrecipIn,Conditions,Clouds,dailyrainin,SolarRadiationWatts/m^2,SoftwareType,DateUTC
2013-06-20 00:22:00,49.0,12.0,-100.00,ESE,121,2.0,5.0,22,0.00,,,0.00,0.000000,,2013-06-20 06:22:00,
2013-06-20 00:33:00,49.0,12.0,-100.00,ESE,121,2.0,5.0,22,0.00,,,0.00,0.000000,,2013-06-20 06:33:00,
2013-06-20 00:43:00,49.0,12.0,-100.00,ESE,121,2.0,5.0,22,0.00,,,0.00,0.000000,,2013-06-20 06:43:00,
2013-06-20 00:53:00,49.0,12.0,-100.00,ESE,121,2.0,5.0,22,0.00,,,0.00,0.000000,,2013-06-20 06:53:00,
2013-06-20 01:22:00,47.0,11.0,-100.00,ESE,106,4.0,7.0,23,0.00,,,0.00,0.000000,,2013-06-20 07:22:00,
2013-06-20 01:34:00,47.0,11.0,-100.00,ESE,106,4.0,7.0,23,0.00,,,0.00,0.000000,,2013-06-20 07:34:00,
2013-06-20 01:44:00,47.0,11.0,-100.00,ESE,106,4.0,7.0,23,0.00,,,0.00,0.000000,,2013-06-20 07:44:00,
2013-06-20 01:52:00,47.0,11.0,-100.00,ESE,106,4.0,7.0,23,0.00,,,0.00,0.000000,,2013-06-20 07:52:00,
2013-06-20 02:22:00,45.0,11.0,-100.00,SE,124,3.0,5.0,25,0.00,,,0.00,0.000000,,2013-06-20 08:22:00,
2013-06-20 02:34:00,45.0,11.0,-100.00,SE,124,3.0,5.0,25,0.00,,,0.00,0.000000,,2013-06-20 08:34:00,
2013-06-20 02:43:00,45.0,11.0,-100.00,SE,124,3.0,5.0,25,0.00,,,0.00,0.000000,,2013-06-20 08:43:00,
2013-06-20 02:53:00,45.0,11.0,-100.00,SE,124,3.0,5.0,25,0.00,,,0.00,0.000000,,2013-06-20 08:53:00,
2013-06-20 03:22:00,45.0,10.0,-100.00,ESE,110,2.0,6.0,24,0.00,,,0.00,0.000000,,2013-06-20 09:22:00,
2013-06-20 03:33:00,45.0,10.0,-100.00,ESE,110,2.0,6.0,24,0.00,,,0.00,0.000000,,2013-06-20 09:33:00,
2013-06-20 03:42:00,45.0,10.0,-100.00,ESE,110,2.0,6.0,24,0.00,,,0.00,0.000000,,2013-06-20 09:42:00,
2013-06-20 03:52:00,45.0,10.0,-100.00,ESE,110,2.0,6.0,24,0.00,,,0.00,0.000000,,2013-06-20 09:52:00,
2013-06-20 04:22:00,45.0,11.0,-100.00,SSE,152,4.0,7.0,25,0.00,,,0.00,0.000000,,2013-06-20 10:22:00,
2013-06-20 04:34:00,45.0,11.0,-100.00,SSE,152,4.0,7.0,25,0.00,,,0.00,0.000000,,2013-06-20 10:34:00,
2013-06-20 04:43:00,45.0,11.0,-100.00,SSE,152,4.0,7.0,25,0.00,,,0.00,0.000000,,2013-06-20 10:43:00,
2013-06-20 04:53:00,45.0,11.0,-100.00,SSE,152,4.0,7.0,25,0.00,,,0.00,0.000000,,2013-06-20 10:53:00,
2013-06-20 05:22:00,42.0,11.0,-100.00,North,353,2.0,7.0,28,0.00,,,0.00,0.000000,,2013-06-20 11:22:00,
2013-06-20 05:34:00,42.0,11.0,-100.00,North,353,2.0,7.0,28,0.00,,,0.00,0.000000,,2013-06-20 11:34:00,
2013-06-20 05:42:00,42.0,11.0,-100.00,North,353,2.0,7.0,28,0.00,,,0.00,0.000000,,2013-06-20 11:42:00,
2013-06-20 05:53:00,42.0,11.0,-100.00,North,353,2.0,7.0,28,0.00,,,0.00,0.000000,,2013-06-20 11:53:00,
2013-06-20 06:22:00,39.0,14.0,-100.00,ESE,104,3.0,7.0,35,0.00,,,-99.99,3.000000,,2013-06-20 12:22:00,
2013-06-20 06:34:00,39.0,14.0,-100.00,ESE,104,3.0,7.0,35,0.00,,,-99.99,3.000000,,2013-06-20 12:34:00,
2013-06-20 06:43:00,39.0,14.0,-100.00,ESE,104,3.0,7.0,35,0.00,,,-99.99,3.000000,,2013-06-20 12:43:00,
2013-06-20 06:53:00,39.0,14.0,-100.00,ESE,104,3.0,7.0,35,0.00,,,-99.99,3.000000,,2013-06-20 12:53:00,
2013-06-20 07:22:00,40.0,18.0,-100.00,ENE,57,2.0,6.0,40,0.00,,,0.00,18.000000,,2013-06-20 13:22:00,
2013-06-20 07:33:00,40.0,18.0,-100.00,ENE,57,2.0,6.0,40,0.00,,,0.00,18.000000,,2013-06-20 13:33:00,
2013-06-20 07:42:00,40.0,18.0,-100.00,ENE,57,2.0,6.0,40,0.00,,,0.00,18.000000,,2013-06-20 13:42:00,
2013-06-20 07:53:00,40.0,18.0,-100.00,ENE,57,2.0,6.0,40,0.00,,,0.00,18.000000,,2013-06-20 13:53:00,
2013-06-20 08:22:00,47.0,21.0,-100.00,North,358,2.0,5.0,35,0.00,,,0.00,82.000000,,2013-06-20 14:22:00,
2013-06-20 08:32:00,47.0,21.0,-100.00,North,358,2.0,5.0,35,0.00,,,0.00,82.000000,,2013-06-20 14:32:00,
2013-06-20 08:42:00,47.0,21.0,-100.00,North,358,2.0,5.0,35,0.00,,,0.00,82.000000,,2013-06-20 14:42:00,
2013-06-20 08:53:00,47.0,21.0,-100.00,North,358,2.0,5.0,35,0.00,,,0.00,82.000000,,2013-06-20 14:53:00,
2013-06-20 09:22:00,60.0,24.0,-100.00,NW,305,4.0,7.0,25,-99.99,,,0.00,457.000000,,2013-06-20 15:22:00,
2013-06-20 09:33:00,60.0,24.0,-100.00,NW,305,4.0,7.0,25,-99.99,,,0.00,457.000000,,2013-06-20 15:33:00,
2013-06-20 09:43:00,60.0,24.0,-100.00,NW,305,4.0,7.0,25,-99.99,,,0.00,457.000000,,2013-06-20 15:43:00,
2013-06-20 09:53:00,60.0,24.0,-100.00,NW,305,4.0,7.0,25,-99.99,,,0.00,457.000000,,2013-06-20 15:53:00,
2013-06-20 10:22:00,67.0,16.0,-100.00,WSW,254,6.0,14.0,14,0.00,,,0.00,643.000000,,2013-06-20 16:22:00,
2013-06-20 10:33:00,67.0,16.0,-100.00,WSW,254,6.0,14.0,14,0.00,,,0.00,643.000000,,2013-06-20 16:33:00,
2013-06-20 10:42:00,67.0,16.0,-100.00,WSW,254,6.0,14.0,14,0.00,,,0.00,643.000000,,2013-06-20 16:42:00,
2013-06-20 10:52:00,67.0,16.0,-100.00,WSW,254,6.0,14.0,14,0.00,,,0.00,643.000000,,2013-06-20 16:52:00,
2013-06-20 11:22:00,69.0,18.0,-100.00,SW,236,6.0,15.0,14,0.00,,,0.00,807.000000,,2013-06-20 17:22:00,
2013-06-20 11:32:00,69.0,18.0,-100.00,SW,236,6.0,15.0,14,0.00,,,0.00,807.000000,,2013-06-20 17:32:00,
2013-06-20 11:43:00,69.0,18.0,-100.00,SW,236,6.0,15.0,14,0.00,,,0.00,807.000000,,2013-06-20 17:43:00,
2013-06-20 11:52:00,69.0,18.0,-100.00,SW,236,6.0,15.0,14,0.00,,,0.00,807.000000,,2013-06-20 17:52:00,
2013-06-20 12:22:00,70.0,17.0,-100.00,West,260,6.0,17.0,13,0.00,,,0.00,932.000000,,2013-06-20 18:22:00,
2013-06-20 12:33:00,70.0,17.0,-100.00,West,260,6.0,17.0,13,0.00,,,0.00,932.000000,,2013-06-20 18:33:00,
2013-06-20 12:43:00,70.0,17.0,-100.00,West,260,6.0,17.0,13,0.00,,,0.00,932.000000,,2013-06-20 18:43:00,
2013-06-20 12:53:00,70.0,17.0,-100.00,West,260,6.0,17.0,13,0.00,,,0.00,932.000000,,2013-06-20 18:53:00,
2013-06-20 13:22:00,72.0,18.0,-100.00,SSW,206,6.0,21.0,13,0.00,,,0.00,1005.000000,,2013-06-20 19:22:00,
2013-06-20 13:34:00,72.0,18.0,-100.00,SSW,206,6.0,21.0,13,0.00,,,0.00,1005.000000,,2013-06-20 19:34:00,
2013-06-20 13:43:00,72.0,18.0,-100.00,SSW,206,6.0,21.0,13,0.00,,,0.00,1005.000000,,2013-06-20 19:43:00,
2013-06-20 13:52:00,72.0,18.0,-100.00,SSW,206,6.0,21.0,13,0.00,,,0.00,1005.000000,,2013-06-20 19:52:00,
2013-06-20 14:22:00,69.0,16.0,-100.00,SSE,159,8.0,26.0,13,0.00,,,0.00,823.000000,,2013-06-20 20:22:00,
2013-06-20 14:33:00,69.0,16.0,-100.00,SSE,159,8.0,26.0,13,0.00,,,0.00,823.000000,,2013-06-20 20:33:00,
2013-06-20 14:42:00,69.0,16.0,-100.00,SSE,159,8.0,26.0,13,0.00,,,0.00,823.000000,,2013-06-20 20:42:00,
2013-06-20 14:52:00,69.0,16.0,-100.00,SSE,159,8.0,26.0,13,0.00,,,0.00,823.000000,,2013-06-20 20:52:00,